Location: Newark
(49.9819°N, 3.0344°E)
Time: 13:58:30
(UTC+00:00)

ISS - Pass Details

Date: 28 January 2020
Orbit: 415 x 423 km, 51.6° (Epoch: 01 March)

Event Time Altitude Azimuth Distance (km) Brightness Sun altitude
Rises 17:21:10 0° 251° (WSW) 2,377 2.7 -7.7°
Reaches altitude 10° 17:23:16 10° 251° (WSW) 1,513 0.8 -8.0°
Maximum altitude 17:26:40 87° 166° (SSE) 430 -3.7 -8.6°
Enters shadow 17:29:41 13° 74° (ENE) 1,353 -1.9 -9.0°
